Regional Weather Roundup
Issued by NWS

Home | Current Version | Previous Version | Graphics & Text | Print | Product List | Glossary On
Versions: 1 2 3 4 5 6 7 8 9 10 11 12 13 14 15 16 17 18 19 20 21 22 23 24 25 26 27 28 29 30 31 32 33 34 35 36 37 38 39 40 41 42 43 44 45 46 47 48 49 50
000
ASUS45 KBOI 300910
RWRID
WEATHER ROUNDUP FOR IDAHO
NATIONAL WEATHER SERVICE BOISE ID
300 AM MDT WED JUL 30 2014

NOTE: "FAIR" INDICATES FEW OR NO CLOUDS BELOW 12000 FEET
WITH NO SIGNIFICANT WEATHER AND/OR OBSTRUCTIONS TO VISIBILITY

IDZ012-014-301000-
SOUTHWEST IDAHO


CITY           SKY/WX    TMP DP  RH WIND       PRES   REMARKS
BOISE          PTCLDY    76  52  43 SE12      30.12S
CALDWELL       PTCLDY    72  48  43 E9        30.12R
MOUNTAIN HOME  CLOUDY    70  57  64 NE8       30.13F
$$

IDZ016-017-301000-
SOUTHCENTRAL IDAHO


CITY           SKY/WX    TMP DP  RH WIND       PRES   REMARKS
BURLEY         MOCLDY    60  53  77 W5        30.18F
JEROME         CLOUDY    63  55  75 W3        30.19F
TWIN FALLS     CLOUDY    65  54  67 CALM      30.21R
$$

IDZ019>023-301000-
SOUTHEAST IDAHO


CITY           SKY/WX    TMP DP  RH WIND       PRES   REMARKS
IDAHO FALLS    CLOUDY    60  54  80 N5        30.23S
POCATELLO      CLEAR     58  56  93 S6        30.22R
REXBURG        CLOUDY    60  52  74 NE5       30.24R
$$

IDZ006-010-011-018-031-032-301000-
CENTRAL IDAHO MOUNTAINS


CITY           SKY/WX    TMP DP  RH WIND       PRES   REMARKS
MCCALL         PTCLDY    58  39  49 NE6       30.25R
HAILEY         CLOUDY    61  54  77 NW12      30.27F
STANLEY          N/A     53  44  71 S5        30.36S
SALMON         MOCLDY    59  52  77 SE3       30.21S
CHALLIS        PTCLDY    61  47  59 NW7       30.26R
$$

IDZ002-004-006-007-026-301000-
NORTHERN IDAHO


CITY           SKY/WX    TMP DP  RH WIND       PRES   REMARKS
LEWISTON       PTCLDY    79  36  21 CALM      29.98R
LOWELL           N/A     63  56  78 N3        30.05R
COEUR D`ALENE  PTCLDY    63  50  63 SE7       30.03R
MULLAN PASS    CLEAR     71  35  26 SE5       30.29S
$$



USA.gov is the U.S. government's official web portal to all federal, state and local government web resources and services.